Time,TemperatureF,DewpointF,PressureIn,WindDirection,WindDirectionDegrees,WindSpeedMPH,WindSpeedGustMPH,Humidity,HourlyPrecipIn,Conditions,Clouds,dailyrainin,SoftwareType,DateUTC
2013-04-19 00:00:00,53.8,34.0,29.97,WSW,244,5.4,5.4,48,0.00,,,-99.99,wx200d/1.3,2013-04-19 04:00:00,
2013-04-19 00:01:00,54.0,34.0,29.97,SSW,195,4.5,0.0,48,0.00,,,-99.99,wx200d/1.3,2013-04-19 04:01:00,
2013-04-19 00:03:00,54.0,34.0,29.97,West,273,4.0,4.0,48,0.00,,,-99.99,wx200d/1.3,2013-04-19 04:03:00,
2013-04-19 00:04:00,54.0,34.0,29.97,SW,218,4.5,6.3,48,0.00,,,-99.99,wx200d/1.3,2013-04-19 04:04:00,
2013-04-19 00:05:00,54.0,34.0,29.97,SW,215,6.3,0.0,48,0.00,,,-99.99,wx200d/1.3,2013-04-19 04:05:00,
2013-04-19 00:09:00,54.0,36.0,29.97,WSW,239,3.1,3.6,49,0.00,,,-99.99,wx200d/1.3,2013-04-19 04:09:00,
2013-04-19 00:14:00,54.0,36.0,29.97,West,275,6.9,6.9,49,0.00,,,-99.99,wx200d/1.3,2013-04-19 04:14:00,
2013-04-19 00:19:00,54.0,36.0,29.97,SW,225,4.0,0.0,50,0.00,,,-99.99,wx200d/1.3,2013-04-19 04:19:00,
2013-04-19 00:24:00,54.1,36.0,29.97,West,265,4.9,6.3,50,0.00,,,-99.99,wx200d/1.3,2013-04-19 04:24:00,
2013-04-19 00:29:00,54.3,36.0,29.97,WSW,249,0.0,0.0,51,0.00,,,-99.99,wx200d/1.3,2013-04-19 04:29:00,
2013-04-19 00:34:00,54.5,37.0,29.97,SE,135,2.7,0.0,51,0.00,,,-99.99,wx200d/1.3,2013-04-19 04:34:00,
2013-04-19 00:39:00,54.3,37.0,29.97,SW,228,4.0,5.4,54,0.00,,,-99.99,wx200d/1.3,2013-04-19 04:39:00,
2013-04-19 00:44:00,54.3,37.0,29.97,West,281,3.1,3.6,55,0.00,,,-99.99,wx200d/1.3,2013-04-19 04:44:00,
2013-04-19 00:49:00,54.3,37.0,29.97,South,170,3.6,3.6,55,0.00,,,-99.99,wx200d/1.3,2013-04-19 04:49:00,
2013-04-19 00:54:00,54.5,41.0,29.97,SW,223,4.9,4.9,57,0.00,,,-99.99,wx200d/1.3,2013-04-19 04:54:00,
2013-04-19 00:59:00,54.5,41.0,29.97,WSW,239,3.6,3.6,58,0.00,,,-99.99,wx200d/1.3,2013-04-19 04:59:00,
2013-04-19 01:04:00,54.5,41.0,29.97,SW,215,4.9,4.9,59,0.00,,,-99.99,wx200d/1.3,2013-04-19 05:04:00,
2013-04-19 01:09:00,54.5,41.0,29.94,SW,220,4.0,4.0,60,0.00,,,-99.99,wx200d/1.3,2013-04-19 05:09:00,
2013-04-19 01:14:00,54.5,43.0,29.94,WSW,256,2.7,0.0,61,0.00,,,-99.99,wx200d/1.3,2013-04-19 05:14:00,
2013-04-19 01:19:00,54.5,43.0,29.94,West,274,4.0,0.0,63,0.00,,,-99.99,wx200d/1.3,2013-04-19 05:19:00,
2013-04-19 01:24:00,54.7,43.0,29.94,SW,234,0.0,3.1,64,0.00,,,-99.99,wx200d/1.3,2013-04-19 05:24:00,
2013-04-19 01:29:00,54.7,45.0,29.94,SW,225,4.5,6.3,66,0.00,,,-99.99,wx200d/1.3,2013-04-19 05:29:00,
2013-04-19 01:34:00,54.9,45.0,29.94,SW,231,4.0,4.5,69,0.00,,,-99.99,wx200d/1.3,2013-04-19 05:34:00,
2013-04-19 01:39:00,54.9,46.0,29.94,WSW,245,5.8,5.8,71,0.00,,,-99.99,wx200d/1.3,2013-04-19 05:39:00,
2013-04-19 01:44:00,55.0,48.0,29.94,West,277,5.4,5.4,74,0.00,,,-99.99,wx200d/1.3,2013-04-19 05:44:00,
2013-04-19 01:49:00,55.0,48.0,29.94,West,274,2.7,0.0,78,0.00,,,-99.99,wx200d/1.3,2013-04-19 05:49:00,
2013-04-19 01:54:00,55.0,50.0,29.94,SW,234,4.0,0.0,81,0.00,,,-99.99,wx200d/1.3,2013-04-19 05:54:00,
2013-04-19 01:59:00,55.2,50.0,29.94,SW,219,4.5,0.0,83,0.00,,,-99.99,wx200d/1.3,2013-04-19 05:59:00,
2013-04-19 02:04:00,55.2,50.0,29.94,WNW,298,4.0,4.0,84,0.00,,,-99.99,wx200d/1.3,2013-04-19 06:04:00,
2013-04-19 02:09:00,55.4,52.0,29.91,West,278,4.5,5.8,85,0.00,,,-99.99,wx200d/1.3,2013-04-19 06:09:00,
2013-04-19 02:14:00,55.2,52.0,29.91,WSW,254,4.9,4.9,87,0.00,,,-99.99,wx200d/1.3,2013-04-19 06:14:00,
2013-04-19 02:19:00,55.2,52.0,29.91,West,270,4.0,4.5,89,0.00,,,-99.99,wx200d/1.3,2013-04-19 06:19:00,
2013-04-19 02:24:00,55.2,52.0,29.91,West,274,2.7,6.3,90,0.00,,,-99.99,wx200d/1.3,2013-04-19 06:24:00,
2013-04-19 02:29:00,55.4,54.0,29.91,WNW,298,6.3,6.3,91,0.00,,,-99.99,wx200d/1.3,2013-04-19 06:29:00,
2013-04-19 02:34:00,55.4,54.0,29.91,WSW,249,6.7,6.7,92,0.00,,,-99.99,wx200d/1.3,2013-04-19 06:34:00,
2013-04-19 02:39:00,55.2,54.0,29.91,WSW,255,4.9,4.9,93,0.00,,,-99.99,wx200d/1.3,2013-04-19 06:39:00,
2013-04-19 02:44:00,55.2,54.0,29.91,SSW,199,3.1,0.0,93,0.00,,,-99.99,wx200d/1.3,2013-04-19 06:44:00,
2013-04-19 02:49:00,55.4,54.0,29.91,WNW,287,4.9,4.9,94,0.00,,,-99.99,wx200d/1.3,2013-04-19 06:49:00,
2013-04-19 02:54:00,55.4,54.0,29.88,SSW,200,4.9,4.9,94,0.00,,,-99.99,wx200d/1.3,2013-04-19 06:54:00,
2013-04-19 02:59:00,55.4,54.0,29.88,WSW,254,5.4,9.2,94,0.00,,,-99.99,wx200d/1.3,2013-04-19 06:59:00,
2013-04-19 03:04:00,55.4,54.0,29.88,WNW,283,3.6,3.6,95,0.00,,,-99.99,wx200d/1.3,2013-04-19 07:04:00,
2013-04-19 03:09:00,55.4,54.0,29.88,SW,222,5.4,5.4,95,0.00,,,-99.99,wx200d/1.3,2013-04-19 07:09:00,
2013-04-19 03:14:00,55.6,54.0,29.88,WSW,257,4.0,7.4,96,0.00,,,-99.99,wx200d/1.3,2013-04-19 07:14:00,
2013-04-19 03:19:00,55.6,54.0,29.88,SW,214,3.6,0.0,96,0.00,,,-99.99,wx200d/1.3,2013-04-19 07:19:00,
2013-04-19 03:24:00,55.6,54.0,29.88,WSW,247,3.1,0.0,96,0.00,,,-99.99,wx200d/1.3,2013-04-19 07:24:00,
2013-04-19 03:29:00,55.6,54.0,29.88,SW,231,0.0,3.1,96,0.00,,,-99.99,wx200d/1.3,2013-04-19 07:29:00,
2013-04-19 03:34:00,55.6,55.0,29.88,SW,227,0.0,0.0,97,0.00,,,-99.99,wx200d/1.3,2013-04-19 07:34:00,
2013-04-19 03:39:00,55.8,55.0,29.85,West,268,4.0,4.0,97,0.00,,,-99.99,wx200d/1.3,2013-04-19 07:39:00,
2013-04-19 03:44:00,55.8,55.0,29.85,West,272,3.1,0.0,97,0.00,,,-99.99,wx200d/1.3,2013-04-19 07:44:00,
2013-04-19 03:49:00,55.8,55.0,29.85,SW,235,2.7,0.0,97,0.00,,,-99.99,wx200d/1.3,2013-04-19 07:49:00,
2013-04-19 03:54:00,55.9,55.0,29.85,West,266,4.9,4.9,97,0.00,,,-99.99,wx200d/1.3,2013-04-19 07:54:00,
2013-04-19 03:59:00,55.9,55.0,29.85,West,280,4.0,4.0,97,0.00,,,-99.99,wx200d/1.3,2013-04-19 07:59:00,
2013-04-19 04:04:00,55.9,55.0,29.85,West,266,5.4,5.4,97,0.00,,,-99.99,wx200d/1.3,2013-04-19 08:04:00,
2013-04-19 04:09:00,55.9,55.0,29.85,SW,235,3.1,4.0,97,0.00,,,-99.99,wx200d/1.3,2013-04-19 08:09:00,
2013-04-19 04:14:00,55.9,55.0,29.85,West,268,4.0,4.0,97,0.00,,,-99.99,wx200d/1.3,2013-04-19 08:14:00,
2013-04-19 04:19:00,56.1,55.0,29.85,West,279,0.0,0.0,97,0.00,,,-99.99,wx200d/1.3,2013-04-19 08:19:00,
2013-04-19 04:24:00,56.1,55.0,29.85,West,264,3.6,6.3,97,0.00,,,-99.99,wx200d/1.3,2013-04-19 08:24:00,
2013-04-19 04:29:00,56.3,57.0,29.85,West,272,3.1,6.3,97,0.00,,,-99.99,wx200d/1.3,2013-04-19 08:29:00,
2013-04-19 04:34:00,56.3,57.0,29.85,West,272,4.0,5.4,97,0.00,,,-99.99,wx200d/1.3,2013-04-19 08:34:00,
2013-04-19 04:39:00,56.5,57.0,29.85,West,277,4.5,4.9,97,0.00,,,-99.99,wx200d/1.3,2013-04-19 08:39:00,
2013-04-19 04:44:00,56.7,57.0,29.85,WNW,282,5.4,5.4,97,0.00,,,-99.99,wx200d/1.3,2013-04-19 08:44:00,
2013-04-19 04:49:00,56.7,57.0,29.85,SW,230,7.8,8.7,97,0.00,,,-99.99,wx200d/1.3,2013-04-19 08:49:00,
2013-04-19 04:54:00,56.8,57.0,29.85,West,275,4.9,4.9,97,0.00,,,-99.99,wx200d/1.3,2013-04-19 08:54:00,
2013-04-19 04:59:00,56.8,57.0,29.85,WSW,252,4.9,4.9,97,0.00,,,-99.99,wx200d/1.3,2013-04-19 08:59:00,
2013-04-19 05:04:00,57.0,57.0,29.85,SW,214,4.9,0.0,97,0.00,,,-99.99,wx200d/1.3,2013-04-19 09:04:00,
2013-04-19 05:09:00,57.0,57.0,29.85,WSW,254,5.4,8.3,97,0.00,,,-99.99,wx200d/1.3,2013-04-19 09:09:00,
2013-04-19 05:14:00,57.0,57.0,29.85,West,263,4.0,4.9,97,0.00,,,-99.99,wx200d/1.3,2013-04-19 09:14:00,
2013-04-19 05:19:00,57.0,57.0,29.85,West,271,3.6,7.4,97,0.00,,,-99.99,wx200d/1.3,2013-04-19 09:19:00,
2013-04-19 05:24:00,57.0,57.0,29.85,West,275,5.8,6.3,97,0.00,,,-99.99,wx200d/1.3,2013-04-19 09:24:00,
2013-04-19 05:29:00,57.0,57.0,29.85,West,264,4.5,6.9,97,0.00,,,-99.99,wx200d/1.3,2013-04-19 09:29:00,
2013-04-19 05:34:00,57.0,57.0,29.85,WNW,283,5.4,5.8,97,0.00,,,-99.99,wx200d/1.3,2013-04-19 09:34:00,
2013-04-19 05:39:00,57.0,57.0,29.83,WNW,286,5.4,5.4,97,0.00,,,-99.99,wx200d/1.3,2013-04-19 09:39:00,
2013-04-19 05:44:00,57.2,57.0,29.83,WNW,287,4.9,0.0,97,0.00,,,-99.99,wx200d/1.3,2013-04-19 09:44:00,
2013-04-19 05:49:00,57.2,57.0,29.83,West,266,5.4,5.4,97,0.00,,,-99.99,wx200d/1.3,2013-04-19 09:49:00,
2013-04-19 05:54:00,57.2,57.0,29.83,SSW,212,5.4,0.0,97,0.00,,,-99.99,wx200d/1.3,2013-04-19 09:54:00,
2013-04-19 05:59:00,57.4,57.0,29.83,West,281,4.0,5.4,97,0.00,,,-99.99,wx200d/1.3,2013-04-19 09:59:00,
2013-04-19 06:04:00,57.4,57.0,29.83,West,268,4.0,4.0,97,0.00,,,-99.99,wx200d/1.3,2013-04-19 10:04:00,
2013-04-19 06:09:00,57.4,57.0,29.83,South,185,4.0,4.0,97,0.00,,,-99.99,wx200d/1.3,2013-04-19 10:09:00,
2013-04-19 06:14:00,57.6,57.0,29.83,SW,217,3.6,3.6,97,0.00,,,-99.99,wx200d/1.3,2013-04-19 10:14:00,
2013-04-19 06:19:00,57.7,57.0,29.83,WNW,290,7.8,7.8,97,0.00,,,-99.99,wx200d/1.3,2013-04-19 10:19:00,
2013-04-19 06:24:00,57.7,57.0,29.83,WSW,252,7.8,7.8,97,0.00,,,-99.99,wx200d/1.3,2013-04-19 10:24:00,
2013-04-19 06:29:00,57.9,57.0,29.83,WSW,251,4.0,4.0,97,0.00,,,-99.99,wx200d/1.3,2013-04-19 10:29:00,
2013-04-19 06:34:00,57.9,57.0,29.83,West,277,5.8,0.0,97,0.00,,,-99.99,wx200d/1.3,2013-04-19 10:34:00,
2013-04-19 06:39:00,58.1,59.0,29.83,WSW,253,4.5,11.2,97,0.00,,,-99.99,wx200d/1.3,2013-04-19 10:39:00,
2013-04-19 06:44:00,58.3,59.0,29.83,West,262,6.7,6.7,97,0.00,,,-99.99,wx200d/1.3,2013-04-19 10:44:00,
2013-04-19 06:49:00,58.5,59.0,29.83,West,275,7.8,7.8,97,0.00,,,-99.99,wx200d/1.3,2013-04-19 10:49:00,
2013-04-19 06:54:00,58.6,59.0,29.83,WNW,290,5.8,6.7,97,0.00,,,-99.99,wx200d/1.3,2013-04-19 10:54:00,
2013-04-19 06:59:00,58.8,59.0,29.83,West,277,6.3,8.3,97,0.00,,,-99.99,wx200d/1.3,2013-04-19 10:59:00,
2013-04-19 07:04:00,59.0,59.0,29.83,West,259,6.7,6.9,97,0.00,,,-99.99,wx200d/1.3,2013-04-19 11:04:00,
2013-04-19 07:09:00,59.2,59.0,29.83,WNW,284,6.9,6.9,97,0.00,,,-99.99,wx200d/1.3,2013-04-19 11:09:00,
2013-04-19 07:14:00,59.4,59.0,29.83,West,263,8.3,8.3,97,0.00,,,-99.99,wx200d/1.3,2013-04-19 11:14:00,
2013-04-19 07:19:00,59.4,59.0,29.83,WNW,292,9.2,9.2,97,0.00,,,-99.99,wx200d/1.3,2013-04-19 11:19:00,
2013-04-19 07:24:00,59.7,59.0,29.83,WSW,257,6.9,6.9,97,0.00,,,-99.99,wx200d/1.3,2013-04-19 11:24:00,
2013-04-19 07:29:00,59.9,61.0,29.83,NNW,330,7.4,7.4,97,0.00,,,-99.99,wx200d/1.3,2013-04-19 11:29:00,
2013-04-19 07:34:00,60.1,61.0,29.83,NW,310,6.9,6.9,97,0.00,,,-99.99,wx200d/1.3,2013-04-19 11:34:00,
2013-04-19 07:39:00,60.3,61.0,29.83,WSW,240,4.9,4.9,97,0.00,,,-99.99,wx200d/1.3,2013-04-19 11:39:00,
2013-04-19 07:44:00,60.6,61.0,29.83,NNW,341,10.5,10.5,97,0.00,,,-99.99,wx200d/1.3,2013-04-19 11:44:00,
2013-04-19 07:49:00,60.8,59.0,29.83,West,277,6.9,10.1,96,0.00,,,-99.99,wx200d/1.3,2013-04-19 11:49:00,
2013-04-19 07:54:00,61.0,59.0,29.83,WNW,291,9.2,9.2,94,0.00,,,-99.99,wx200d/1.3,2013-04-19 11:54:00,
2013-04-19 07:59:00,61.2,59.0,29.83,WNW,285,6.7,6.7,93,0.00,,,-99.99,wx200d/1.3,2013-04-19 11:59:00,
2013-04-19 08:04:00,61.3,59.0,29.83,SSW,210,6.7,8.3,92,0.00,,,-99.99,wx200d/1.3,2013-04-19 12:04:00,
2013-04-19 08:09:00,61.9,59.0,29.83,West,272,4.5,7.4,90,0.00,,,-99.99,wx200d/1.3,2013-04-19 12:09:00,
2013-04-19 08:14:00,62.1,59.0,29.83,WSW,258,6.9,6.9,88,0.00,,,-99.99,wx200d/1.3,2013-04-19 12:14:00,
2013-04-19 08:19:00,62.6,59.0,29.83,SW,232,6.7,6.7,87,0.00,,,-99.99,wx200d/1.3,2013-04-19 12:19:00,
2013-04-19 08:24:00,63.1,57.0,29.83,SW,233,5.4,5.4,83,0.00,,,-99.99,wx200d/1.3,2013-04-19 12:24:00,
2013-04-19 08:29:00,63.5,59.0,29.83,SSW,193,6.7,6.7,81,0.00,,,-99.99,wx200d/1.3,2013-04-19 12:29:00,
2013-04-19 08:34:00,63.5,57.0,29.83,West,266,6.7,13.4,79,0.00,,,-99.99,wx200d/1.3,2013-04-19 12:34:00,
2013-04-19 08:39:00,63.5,57.0,29.80,NNW,329,6.3,6.3,78,0.00,,,-99.99,wx200d/1.3,2013-04-19 12:39:00,
2013-04-19 08:44:00,63.7,57.0,29.80,West,280,8.3,11.2,78,0.00,,,-99.99,wx200d/1.3,2013-04-19 12:44:00,
2013-04-19 08:49:00,63.9,57.0,29.80,West,269,8.7,8.7,77,0.00,,,-99.99,wx200d/1.3,2013-04-19 12:49:00,
2013-04-19 08:54:00,64.2,57.0,29.83,West,259,5.8,5.8,77,0.00,,,-99.99,wx200d/1.3,2013-04-19 12:54:00,
2013-04-19 08:59:00,64.2,57.0,29.83,WSW,251,8.7,11.2,75,0.00,,,-99.99,wx200d/1.3,2013-04-19 12:59:00,
2013-04-19 09:04:00,64.4,57.0,29.83,WNW,292,4.9,13.9,75,0.00,,,-99.99,wx200d/1.3,2013-04-19 13:04:00,
2013-04-19 09:09:00,64.8,55.0,29.80,West,265,5.8,6.9,74,0.00,,,-99.99,wx200d/1.3,2013-04-19 13:09:00,
2013-04-19 09:14:00,65.3,57.0,29.80,WSW,252,6.7,6.7,72,0.00,,,-99.99,wx200d/1.3,2013-04-19 13:14:00,
2013-04-19 09:19:00,66.4,55.0,29.80,WSW,257,6.9,11.0,69,0.00,,,-99.99,wx200d/1.3,2013-04-19 13:19:00,
2013-04-19 09:24:00,67.5,55.0,29.80,West,268,6.9,6.9,66,0.00,,,-99.99,wx200d/1.3,2013-04-19 13:24:00,
2013-04-19 09:29:00,67.5,55.0,29.80,West,259,8.7,11.6,62,0.00,,,-99.99,wx200d/1.3,2013-04-19 13:29:00,
2013-04-19 09:34:00,68.7,54.0,29.80,WNW,282,8.7,8.7,59,0.00,,,-99.99,wx200d/1.3,2013-04-19 13:34:00,
2013-04-19 09:39:00,69.3,52.0,29.80,West,278,11.2,13.4,54,0.00,,,-99.99,wx200d/1.3,2013-04-19 13:39:00,
2013-04-19 09:44:00,70.3,52.0,29.80,SE,139,6.7,6.7,54,0.00,,,-99.99,wx200d/1.3,2013-04-19 13:44:00,
2013-04-19 09:49:00,70.7,52.0,29.80,North,1,11.0,11.0,48,0.00,,,-99.99,wx200d/1.3,2013-04-19 13:49:00,
2013-04-19 09:54:00,70.7,50.0,29.80,NW,309,6.7,8.7,47,0.00,,,-99.99,wx200d/1.3,2013-04-19 13:54:00,
2013-04-19 09:59:00,70.3,50.0,29.80,WSW,242,9.6,12.5,48,0.00,,,-99.99,wx200d/1.3,2013-04-19 13:59:00,
2013-04-19 10:04:00,70.3,50.0,29.80,East,89,6.9,6.9,49,0.00,,,-99.99,wx200d/1.3,2013-04-19 14:04:00,
2013-04-19 10:09:00,70.7,50.0,29.80,WSW,244,7.4,8.3,47,0.00,,,-99.99,wx200d/1.3,2013-04-19 14:09:00,
2013-04-19 10:14:00,70.5,50.0,29.80,WNW,300,9.6,9.6,48,0.00,,,-99.99,wx200d/1.3,2013-04-19 14:14:00,
2013-04-19 10:19:00,70.3,50.0,29.80,West,281,11.2,11.2,49,0.00,,,-99.99,wx200d/1.3,2013-04-19 14:19:00,
2013-04-19 10:24:00,70.2,50.0,29.77,WSW,237,7.4,10.5,49,0.00,,,-99.99,wx200d/1.3,2013-04-19 14:24:00,
2013-04-19 10:29:00,72.1,50.0,29.77,NNW,337,6.3,6.3,46,0.00,,,-99.99,wx200d/1.3,2013-04-19 14:29:00,
2013-04-19 10:34:00,72.7,48.0,29.77,SW,231,4.9,8.3,42,0.00,,,-99.99,wx200d/1.3,2013-04-19 14:34:00,
2013-04-19 10:39:00,73.6,46.0,29.77,SSW,203,5.8,6.9,39,0.00,,,-99.99,wx200d/1.3,2013-04-19 14:39:00,
2013-04-19 10:44:00,72.7,48.0,29.77,WSW,254,8.7,8.7,41,0.00,,,-99.99,wx200d/1.3,2013-04-19 14:44:00,
2013-04-19 10:49:00,72.9,48.0,29.77,NW,319,10.1,10.1,41,0.00,,,-99.99,wx200d/1.3,2013-04-19 14:49:00,
2013-04-19 10:54:00,73.0,48.0,29.77,NW,313,7.4,13.0,42,0.00,,,-99.99,wx200d/1.3,2013-04-19 14:54:00,
2013-04-19 10:59:00,73.8,46.0,29.77,West,265,10.5,10.5,38,0.00,,,-99.99,wx200d/1.3,2013-04-19 14:59:00,
2013-04-19 11:04:00,73.4,46.0,29.77,NW,305,10.1,15.9,37,0.00,,,-99.99,wx200d/1.3,2013-04-19 15:04:00,
2013-04-19 11:09:00,73.2,46.0,29.77,WNW,283,11.0,11.0,38,0.00,,,-99.99,wx200d/1.3,2013-04-19 15:09:00,
2013-04-19 11:14:00,72.1,48.0,29.77,West,281,15.4,15.4,42,0.00,,,-99.99,wx200d/1.3,2013-04-19 15:14:00,
2013-04-19 11:19:00,72.0,48.0,29.77,WSW,244,12.1,12.1,42,0.00,,,-99.99,wx200d/1.3,2013-04-19 15:19:00,
2013-04-19 11:24:00,73.2,48.0,29.77,WSW,252,10.1,10.1,41,0.00,,,-99.99,wx200d/1.3,2013-04-19 15:24:00,
2013-04-19 11:29:00,74.7,45.0,29.77,West,266,13.4,13.4,33,0.00,,,-99.99,wx200d/1.3,2013-04-19 15:29:00,
2013-04-19 11:34:00,75.4,43.0,29.77,NW,316,6.9,20.6,32,0.00,,,-99.99,wx200d/1.3,2013-04-19 15:34:00,
2013-04-19 11:39:00,75.9,43.0,29.74,NNE,29,10.1,11.2,31,0.00,,,-99.99,wx200d/1.3,2013-04-19 15:39:00,
2013-04-19 11:44:00,75.6,43.0,29.74,West,265,10.5,13.0,31,0.00,,,-99.99,wx200d/1.3,2013-04-19 15:44:00,
2013-04-19 11:49:00,75.2,43.0,29.74,WNW,295,9.6,11.0,31,0.00,,,-99.99,wx200d/1.3,2013-04-19 15:49:00,
2013-04-19 11:54:00,74.3,43.0,29.74,SSW,202,13.4,15.9,31,0.00,,,-99.99,wx200d/1.3,2013-04-19 15:54:00,
2013-04-19 11:59:00,74.7,43.0,29.74,West,269,9.6,9.6,31,0.00,,,-99.99,wx200d/1.3,2013-04-19 15:59:00,
2013-04-19 12:04:00,74.1,41.0,29.74,NW,308,10.1,15.2,31,0.00,,,-99.99,wx200d/1.3,2013-04-19 16:04:00,
2013-04-19 12:09:00,73.2,43.0,29.74,WSW,239,11.2,11.2,33,0.00,,,-99.99,wx200d/1.3,2013-04-19 16:09:00,
2013-04-19 12:14:00,74.5,45.0,29.74,SSW,211,8.3,8.3,33,0.00,,,-99.99,wx200d/1.3,2013-04-19 16:14:00,
2013-04-19 12:19:00,75.2,43.0,29.74,WNW,284,9.2,9.2,31,0.00,,,-99.99,wx200d/1.3,2013-04-19 16:19:00,
2013-04-19 12:24:00,75.0,43.0,29.71,WNW,294,8.3,8.7,31,0.00,,,-99.99,wx200d/1.3,2013-04-19 16:24:00,
2013-04-19 12:29:00,74.1,41.0,29.71,WNW,289,13.0,13.0,32,0.00,,,-99.99,wx200d/1.3,2013-04-19 16:29:00,
2013-04-19 12:34:00,74.7,43.0,29.71,North,356,12.1,13.0,31,0.00,,,-99.99,wx200d/1.3,2013-04-19 16:34:00,
2013-04-19 12:39:00,75.0,41.0,29.71,SW,219,12.1,12.1,30,0.00,,,-99.99,wx200d/1.3,2013-04-19 16:39:00,
2013-04-19 12:44:00,75.0,43.0,29.71,SW,234,8.7,11.2,31,0.00,,,-99.99,wx200d/1.3,2013-04-19 16:44:00,
2013-04-19 12:49:00,74.8,43.0,29.71,WNW,295,8.3,11.0,31,0.00,,,-99.99,wx200d/1.3,2013-04-19 16:49:00,
2013-04-19 12:54:00,75.2,43.0,29.71,West,280,13.4,13.4,31,0.00,,,-99.99,wx200d/1.3,2013-04-19 16:54:00,
2013-04-19 12:59:00,75.2,43.0,29.71,SSW,211,10.5,10.5,31,0.00,,,-99.99,wx200d/1.3,2013-04-19 16:59:00,
2013-04-19 13:04:00,75.4,41.0,29.71,NW,314,12.5,12.5,30,0.00,,,-99.99,wx200d/1.3,2013-04-19 17:04:00,
2013-04-19 13:09:00,75.2,43.0,29.71,West,275,11.0,16.3,31,0.00,,,-99.99,wx200d/1.3,2013-04-19 17:09:00,
2013-04-19 13:14:00,75.0,43.0,29.71,NW,308,6.9,7.8,31,0.00,,,-99.99,wx200d/1.3,2013-04-19 17:14:00,
2013-04-19 13:19:00,73.9,41.0,29.71,West,262,9.6,9.6,32,0.00,,,-99.99,wx200d/1.3,2013-04-19 17:19:00,
2013-04-19 13:24:00,73.9,43.0,29.71,NW,305,7.4,9.6,33,0.00,,,-99.99,wx200d/1.3,2013-04-19 17:24:00,
2013-04-19 13:29:00,74.1,43.0,29.71,West,274,13.4,13.4,33,0.00,,,-99.99,wx200d/1.3,2013-04-19 17:29:00,
2013-04-19 13:34:00,74.5,43.0,29.71,WSW,250,11.2,11.2,32,0.00,,,-99.99,wx200d/1.3,2013-04-19 17:34:00,
2013-04-19 13:39:00,75.6,43.0,29.68,West,276,12.1,14.8,31,0.00,,,-99.99,wx200d/1.3,2013-04-19 17:39:00,
2013-04-19 13:44:00,76.1,43.0,29.68,WSW,252,9.6,9.6,30,0.00,,,-99.99,wx200d/1.3,2013-04-19 17:44:00,
2013-04-19 13:49:00,77.2,43.0,29.68,SSW,204,7.8,7.8,29,0.00,,,-99.99,wx200d/1.3,2013-04-19 17:49:00,
2013-04-19 13:54:00,77.4,41.0,29.68,WSW,243,4.9,5.8,28,0.00,,,-99.99,wx200d/1.3,2013-04-19 17:54:00,
2013-04-19 13:59:00,76.8,41.0,29.68,WSW,257,10.5,13.9,27,0.00,,,-99.99,wx200d/1.3,2013-04-19 17:59:00,
2013-04-19 14:04:00,75.7,41.0,29.68,West,276,9.6,15.4,30,0.00,,,-99.99,wx200d/1.3,2013-04-19 18:04:00,
2013-04-19 14:09:00,75.6,43.0,29.68,North,1,6.9,10.1,31,0.00,,,-99.99,wx200d/1.3,2013-04-19 18:09:00,
2013-04-19 14:14:00,75.6,43.0,29.68,West,276,7.4,12.5,31,0.00,,,-99.99,wx200d/1.3,2013-04-19 18:14:00,
2013-04-19 14:19:00,75.9,41.0,29.68,NW,321,8.7,8.7,30,0.00,,,-99.99,wx200d/1.3,2013-04-19 18:19:00,
2013-04-19 14:24:00,76.3,43.0,29.65,NNW,347,6.9,12.5,29,0.00,,,-99.99,wx200d/1.3,2013-04-19 18:24:00,
2013-04-19 14:29:00,76.8,43.0,29.65,NNW,340,7.8,7.8,30,0.00,,,-99.99,wx200d/1.3,2013-04-19 18:29:00,
2013-04-19 14:34:00,75.4,43.0,29.65,WSW,252,14.3,14.3,31,0.00,,,-99.99,wx200d/1.3,2013-04-19 18:34:00,
2013-04-19 14:39:00,75.7,43.0,29.65,WNW,288,9.6,9.6,31,0.00,,,-99.99,wx200d/1.3,2013-04-19 18:39:00,
2013-04-19 14:44:00,75.9,43.0,29.65,North,4,7.4,7.4,31,0.00,,,-99.99,wx200d/1.3,2013-04-19 18:44:00,
2013-04-19 14:49:00,74.8,43.0,29.65,WSW,250,12.1,12.1,32,0.00,,,-99.99,wx200d/1.3,2013-04-19 18:49:00,
2013-04-19 14:54:00,74.3,46.0,29.65,SW,216,6.7,6.7,36,0.00,,,-99.99,wx200d/1.3,2013-04-19 18:54:00,
2013-04-19 14:59:00,73.6,48.0,29.65,SW,229,8.7,11.6,40,0.00,,,-99.99,wx200d/1.3,2013-04-19 18:59:00,
2013-04-19 15:04:00,73.6,48.0,29.65,SW,233,5.4,15.9,42,0.00,,,-99.99,wx200d/1.3,2013-04-19 19:04:00,
2013-04-19 15:09:00,73.6,48.0,29.65,West,263,6.7,7.4,42,0.00,,,-99.99,wx200d/1.3,2013-04-19 19:09:00,
2013-04-19 15:14:00,73.8,50.0,29.65,South,186,6.7,13.0,43,0.00,,,-99.99,wx200d/1.3,2013-04-19 19:14:00,
2013-04-19 15:19:00,74.3,50.0,29.65,NW,317,8.7,13.4,41,0.00,,,-99.99,wx200d/1.3,2013-04-19 19:19:00,
2013-04-19 15:24:00,74.8,48.0,29.65,WSW,256,5.8,7.8,39,0.00,,,-99.99,wx200d/1.3,2013-04-19 19:24:00,
2013-04-19 15:29:00,73.9,48.0,29.65,West,275,10.5,10.5,41,0.00,,,-99.99,wx200d/1.3,2013-04-19 19:29:00,
2013-04-19 15:34:00,73.4,50.0,29.65,SW,218,9.2,9.6,43,0.00,,,-99.99,wx200d/1.3,2013-04-19 19:34:00,
2013-04-19 15:39:00,73.0,52.0,29.62,North,10,8.3,8.3,46,0.00,,,-99.99,wx200d/1.3,2013-04-19 19:39:00,
2013-04-19 15:44:00,72.1,52.0,29.62,West,274,9.6,9.6,49,0.00,,,-99.99,wx200d/1.3,2013-04-19 19:44:00,
2013-04-19 15:49:00,71.8,52.0,29.62,North,351,7.8,7.8,51,0.00,,,-99.99,wx200d/1.3,2013-04-19 19:49:00,
2013-04-19 15:54:00,71.8,54.0,29.62,SW,236,6.9,6.9,52,0.00,,,-99.99,wx200d/1.3,2013-04-19 19:54:00,
2013-04-19 15:59:00,71.4,54.0,29.62,SSW,201,4.9,12.5,54,0.00,,,-99.99,wx200d/1.3,2013-04-19 19:59:00,
2013-04-19 16:04:00,71.1,55.0,29.62,WSW,257,6.3,8.3,57,0.00,,,-99.99,wx200d/1.3,2013-04-19 20:04:00,
2013-04-19 16:09:00,70.9,57.0,29.62,West,273,11.2,11.2,61,0.00,,,-99.99,wx200d/1.3,2013-04-19 20:09:00,
2013-04-19 16:14:00,70.7,59.0,29.62,West,265,6.9,15.2,63,0.00,,,-99.99,wx200d/1.3,2013-04-19 20:14:00,
2013-04-19 16:19:00,70.3,59.0,29.62,South,181,8.3,9.6,68,0.00,,,-99.99,wx200d/1.3,2013-04-19 20:19:00,
2013-04-19 16:24:00,69.3,61.0,29.62,NW,319,10.1,10.1,75,0.00,,,-99.99,wx200d/1.3,2013-04-19 20:24:00,
2013-04-19 16:29:00,68.7,61.0,29.62,SW,232,5.4,5.4,79,0.00,,,-99.99,wx200d/1.3,2013-04-19 20:29:00,
2013-04-19 16:34:00,68.7,61.0,29.62,WNW,284,4.0,6.7,80,0.00,,,-99.99,wx200d/1.3,2013-04-19 20:34:00,
2013-04-19 16:40:00,68.7,63.0,29.62,West,272,7.4,7.4,81,0.00,,,-99.99,wx200d/1.3,2013-04-19 20:40:00,
2013-04-19 16:45:00,68.4,63.0,29.62,WNW,294,7.8,7.8,84,0.00,,,-99.99,wx200d/1.3,2013-04-19 20:45:00,
2013-04-19 16:50:00,68.4,63.0,29.62,SSW,210,7.8,7.8,85,0.00,,,-99.99,wx200d/1.3,2013-04-19 20:50:00,
2013-04-19 16:55:00,68.4,63.0,29.62,WNW,286,7.8,8.3,83,0.00,,,-99.99,wx200d/1.3,2013-04-19 20:55:00,
2013-04-19 17:00:00,68.7,63.0,29.62,West,280,5.8,5.8,81,0.00,,,-99.99,wx200d/1.3,2013-04-19 21:00:00,
2013-04-19 17:05:00,69.1,63.0,29.59,West,280,6.3,6.3,79,0.00,,,-99.99,wx200d/1.3,2013-04-19 21:05:00,
2013-04-19 17:10:00,69.1,63.0,29.59,WNW,297,7.4,13.4,76,0.00,,,-99.99,wx200d/1.3,2013-04-19 21:10:00,
2013-04-19 17:15:00,69.1,63.0,29.59,WSW,241,7.4,7.4,76,0.00,,,-99.99,wx200d/1.3,2013-04-19 21:15:00,
2013-04-19 17:20:00,69.3,63.0,29.59,SSW,192,6.9,6.9,76,0.00,,,-99.99,wx200d/1.3,2013-04-19 21:20:00,
2013-04-19 17:25:00,68.9,63.0,29.59,WSW,245,8.7,8.7,79,0.00,,,-99.99,wx200d/1.3,2013-04-19 21:25:00,
2013-04-19 17:30:00,68.7,61.0,29.59,NNW,328,8.7,8.7,80,0.00,,,-99.99,wx200d/1.3,2013-04-19 21:30:00,
2013-04-19 17:35:00,68.7,61.0,29.59,WSW,256,6.9,8.3,79,0.00,,,-99.99,wx200d/1.3,2013-04-19 21:35:00,
2013-04-19 17:40:00,68.7,61.0,29.59,West,279,12.5,12.5,77,0.00,,,-99.99,wx200d/1.3,2013-04-19 21:40:00,
2013-04-19 17:45:00,68.9,63.0,29.59,West,271,6.3,6.3,77,0.00,,,-99.99,wx200d/1.3,2013-04-19 21:45:00,
2013-04-19 17:50:00,68.9,63.0,29.59,West,270,5.4,6.7,76,0.00,,,-99.99,wx200d/1.3,2013-04-19 21:50:00,
2013-04-19 17:55:00,68.7,61.0,29.59,WNW,288,7.8,16.3,77,0.00,,,-99.99,wx200d/1.3,2013-04-19 21:55:00,
2013-04-19 18:01:00,68.4,61.0,29.59,NW,306,9.2,9.2,78,0.00,,,-99.99,wx200d/1.3,2013-04-19 22:01:00,
2013-04-19 18:06:00,68.4,61.0,29.56,South,189,9.2,9.2,78,0.00,,,-99.99,wx200d/1.3,2013-04-19 22:06:00,
2013-04-19 18:11:00,68.0,61.0,29.56,SSE,159,10.5,10.5,78,0.00,,,-99.99,wx200d/1.3,2013-04-19 22:11:00,
2013-04-19 18:16:00,68.0,61.0,29.56,WSW,246,6.9,6.9,78,0.00,,,-99.99,wx200d/1.3,2013-04-19 22:16:00,
2013-04-19 18:21:00,67.8,61.0,29.56,WSW,240,8.7,12.1,78,0.00,,,-99.99,wx200d/1.3,2013-04-19 22:21:00,
2013-04-19 18:26:00,67.5,61.0,29.56,NNW,332,9.6,14.3,79,0.00,,,-99.99,wx200d/1.3,2013-04-19 22:26:00,
2013-04-19 18:31:00,67.5,61.0,29.56,ESE,111,6.3,6.3,80,0.00,,,-99.99,wx200d/1.3,2013-04-19 22:31:00,
2013-04-19 18:36:00,67.1,61.0,29.56,WSW,251,6.9,15.9,80,0.00,,,-99.99,wx200d/1.3,2013-04-19 22:36:00,
2013-04-19 18:41:00,66.7,61.0,29.56,NW,314,11.6,11.6,82,0.00,,,-99.99,wx200d/1.3,2013-04-19 22:41:00,
2013-04-19 18:46:00,66.4,61.0,29.56,WSW,249,8.7,8.7,84,0.00,,,-99.99,wx200d/1.3,2013-04-19 22:46:00,
2013-04-19 18:51:00,66.2,63.0,29.56,WSW,251,9.6,9.6,86,0.00,,,-99.99,wx200d/1.3,2013-04-19 22:51:00,
2013-04-19 18:56:00,66.0,63.0,29.56,South,171,14.8,14.8,86,0.00,,,-99.99,wx200d/1.3,2013-04-19 22:56:00,
2013-04-19 19:01:00,66.0,63.0,29.56,WSW,250,8.3,8.3,86,0.00,,,-99.99,wx200d/1.3,2013-04-19 23:01:00,
2013-04-19 19:06:00,66.0,63.0,29.56,SW,232,8.7,11.2,86,0.00,,,-99.99,wx200d/1.3,2013-04-19 23:06:00,
2013-04-19 19:11:00,65.8,63.0,29.56,West,269,11.0,11.0,86,0.00,,,-99.99,wx200d/1.3,2013-04-19 23:11:00,
2013-04-19 19:16:00,65.8,63.0,29.56,WSW,255,6.9,6.9,86,0.00,,,-99.99,wx200d/1.3,2013-04-19 23:16:00,
2013-04-19 19:21:00,65.8,61.0,29.56,NW,304,10.1,10.1,85,0.00,,,-99.99,wx200d/1.3,2013-04-19 23:21:00,
2013-04-19 19:26:00,65.7,61.0,29.56,WNW,295,11.0,11.0,85,0.00,,,-99.99,wx200d/1.3,2013-04-19 23:26:00,
2013-04-19 19:31:00,65.7,61.0,29.56,WSW,251,7.4,7.4,85,0.00,,,-99.99,wx200d/1.3,2013-04-19 23:31:00,
2013-04-19 19:36:00,65.5,63.0,29.56,West,272,7.8,7.8,86,0.00,,,-99.99,wx200d/1.3,2013-04-19 23:36:00,
2013-04-19 19:41:00,65.3,63.0,29.56,West,259,8.7,8.7,87,0.00,,,-99.99,wx200d/1.3,2013-04-19 23:41:00,
2013-04-19 19:46:00,65.1,61.0,29.56,West,275,9.6,10.1,87,0.00,,,-99.99,wx200d/1.3,2013-04-19 23:46:00,
2013-04-19 19:51:00,64.9,61.0,29.56,WSW,247,10.1,11.0,88,0.00,,,-99.99,wx200d/1.3,2013-04-19 23:51:00,
2013-04-19 19:56:00,64.9,61.0,29.56,SW,229,13.0,13.0,89,0.00,,,-99.99,wx200d/1.3,2013-04-19 23:56:00,
2013-04-19 20:01:00,64.9,61.0,29.56,SE,139,9.6,9.6,89,0.00,,,-99.99,wx200d/1.3,2013-04-20 00:01:00,
2013-04-19 20:06:00,65.1,61.0,29.56,NW,312,9.2,9.2,89,0.00,,,-99.99,wx200d/1.3,2013-04-20 00:06:00,
2013-04-19 20:11:00,65.3,63.0,29.56,WNW,282,6.9,9.2,88,0.00,,,-99.99,wx200d/1.3,2013-04-20 00:11:00,
2013-04-19 20:16:00,65.5,63.0,29.56,West,261,6.9,6.9,88,0.00,,,-99.99,wx200d/1.3,2013-04-20 00:16:00,
2013-04-19 20:21:00,65.5,63.0,29.56,WNW,286,8.3,8.3,87,0.00,,,-99.99,wx200d/1.3,2013-04-20 00:21:00,
2013-04-19 20:26:00,65.7,63.0,29.56,SSW,199,8.3,8.3,87,0.00,,,-99.99,wx200d/1.3,2013-04-20 00:26:00,
2013-04-19 20:31:00,65.7,63.0,29.56,WNW,287,11.2,12.1,87,0.00,,,-99.99,wx200d/1.3,2013-04-20 00:31:00,
2013-04-19 20:36:00,65.7,63.0,29.56,West,268,9.2,9.6,88,0.00,,,-99.99,wx200d/1.3,2013-04-20 00:36:00,
2013-04-19 20:41:00,65.7,63.0,29.56,SSW,197,5.8,8.3,88,0.00,,,-99.99,wx200d/1.3,2013-04-20 00:41:00,
2013-04-19 20:46:00,65.7,63.0,29.56,WSW,247,6.7,7.8,88,0.00,,,-99.99,wx200d/1.3,2013-04-20 00:46:00,
2013-04-19 20:51:00,65.7,63.0,29.56,West,270,6.7,8.7,88,0.00,,,-99.99,wx200d/1.3,2013-04-20 00:51:00,
2013-04-19 20:56:00,65.5,63.0,29.56,WSW,251,6.7,10.1,88,0.00,,,-99.99,wx200d/1.3,2013-04-20 00:56:00,
2013-04-19 21:01:00,65.5,63.0,29.56,West,272,10.5,11.0,89,0.00,,,-99.99,wx200d/1.3,2013-04-20 01:01:00,
2013-04-19 21:06:00,65.3,63.0,29.56,West,268,7.8,8.3,90,0.00,,,-99.99,wx200d/1.3,2013-04-20 01:06:00,
2013-04-19 21:11:00,65.5,63.0,29.56,South,185,5.8,8.7,90,0.00,,,-99.99,wx200d/1.3,2013-04-20 01:11:00,
2013-04-19 21:16:00,65.5,63.0,29.56,SW,223,4.9,4.9,90,0.00,,,-99.99,wx200d/1.3,2013-04-20 01:16:00,
2013-04-19 21:21:00,65.5,64.0,29.53,WNW,285,6.3,6.9,91,0.00,,,-99.99,wx200d/1.3,2013-04-20 01:21:00,
2013-04-19 21:26:00,65.3,64.0,29.53,WNW,286,6.7,6.7,91,0.00,,,-99.99,wx200d/1.3,2013-04-20 01:26:00,
2013-04-19 21:31:00,65.1,63.0,29.53,WSW,253,6.9,13.0,92,0.00,,,-99.99,wx200d/1.3,2013-04-20 01:31:00,
2013-04-19 21:36:00,65.1,63.0,29.53,West,265,6.7,6.7,92,0.00,,,-99.99,wx200d/1.3,2013-04-20 01:36:00,
2013-04-19 21:41:00,65.3,64.0,29.53,WSW,255,6.9,6.9,93,0.00,,,-99.99,wx200d/1.3,2013-04-20 01:41:00,
2013-04-19 21:46:00,65.3,64.0,29.53,SSW,198,6.9,6.9,93,0.00,,,-99.99,wx200d/1.3,2013-04-20 01:46:00,
2013-04-19 21:51:00,65.5,64.0,29.53,WNW,299,5.8,6.9,93,0.00,,,-99.99,wx200d/1.3,2013-04-20 01:51:00,
2013-04-19 21:56:00,65.5,64.0,29.53,WSW,252,7.8,7.8,93,0.00,,,-99.99,wx200d/1.3,2013-04-20 01:56:00,
2013-04-19 22:01:00,65.5,64.0,29.53,WSW,239,7.8,7.8,93,0.00,,,-99.99,wx200d/1.3,2013-04-20 02:01:00,
2013-04-19 22:06:00,65.7,64.0,29.53,West,271,9.2,15.9,93,0.00,,,-99.99,wx200d/1.3,2013-04-20 02:06:00,
2013-04-19 22:11:00,65.7,64.0,29.53,West,269,10.1,14.3,93,0.00,,,-99.99,wx200d/1.3,2013-04-20 02:11:00,
2013-04-19 22:16:00,65.7,64.0,29.53,WNW,297,10.5,10.5,94,0.00,,,-99.99,wx200d/1.3,2013-04-20 02:16:00,
2013-04-19 22:21:00,65.7,64.0,29.50,West,264,4.9,6.7,94,0.00,,,-99.99,wx200d/1.3,2013-04-20 02:21:00,
2013-04-19 22:26:00,65.7,64.0,29.50,SW,234,10.1,13.0,93,0.00,,,-99.99,wx200d/1.3,2013-04-20 02:26:00,
2013-04-19 22:31:00,65.7,64.0,29.50,WNW,287,14.3,14.3,93,0.00,,,-99.99,wx200d/1.3,2013-04-20 02:31:00,
2013-04-19 22:36:00,65.8,64.0,29.50,West,275,13.0,13.0,93,0.00,,,-99.99,wx200d/1.3,2013-04-20 02:36:00,
2013-04-19 22:41:00,65.8,64.0,29.50,WSW,252,11.0,11.0,93,0.00,,,-99.99,wx200d/1.3,2013-04-20 02:41:00,
2013-04-19 22:46:00,65.8,64.0,29.50,WNW,294,9.2,14.3,92,0.00,,,-99.99,wx200d/1.3,2013-04-20 02:46:00,
2013-04-19 22:51:00,66.0,64.0,29.50,West,278,6.9,17.7,92,0.00,,,-99.99,wx200d/1.3,2013-04-20 02:51:00,
2013-04-19 22:56:00,66.0,64.0,29.50,WNW,283,12.5,12.5,92,0.00,,,-99.99,wx200d/1.3,2013-04-20 02:56:00,
2013-04-19 23:01:00,66.2,64.0,29.50,SW,226,11.2,11.2,92,0.00,,,-99.99,wx200d/1.3,2013-04-20 03:01:00,
2013-04-19 23:06:00,66.2,64.0,29.50,NNW,342,9.2,9.2,91,0.00,,,-99.99,wx200d/1.3,2013-04-20 03:06:00,
2013-04-19 23:11:00,66.4,64.0,29.50,West,281,9.6,15.2,91,0.00,,,-99.99,wx200d/1.3,2013-04-20 03:11:00,
2013-04-19 23:16:00,66.6,64.0,29.50,WSW,245,9.2,9.2,91,0.00,,,-99.99,wx200d/1.3,2013-04-20 03:16:00,
2013-04-19 23:21:00,66.7,63.0,29.50,WNW,283,9.2,9.2,90,0.00,,,-99.99,wx200d/1.3,2013-04-20 03:21:00,
2013-04-19 23:26:00,66.7,63.0,29.50,WSW,245,8.7,8.7,90,0.00,,,-99.99,wx200d/1.3,2013-04-20 03:26:00,
2013-04-19 23:31:00,66.9,63.0,29.50,SW,233,15.2,15.2,90,0.00,,,-99.99,wx200d/1.3,2013-04-20 03:31:00,
2013-04-19 23:36:00,66.9,63.0,29.50,SW,216,10.5,13.4,89,0.00,,,-99.99,wx200d/1.3,2013-04-20 03:36:00,
2013-04-19 23:41:00,67.1,64.0,29.50,NW,321,9.2,9.2,88,0.00,,,-99.99,wx200d/1.3,2013-04-20 03:41:00,
2013-04-19 23:46:00,67.1,64.0,29.50,West,264,8.7,10.1,88,0.00,,,-99.99,wx200d/1.3,2013-04-20 03:46:00,
2013-04-19 23:51:00,67.3,64.0,29.47,NW,324,15.9,15.9,88,0.00,,,-99.99,wx200d/1.3,2013-04-20 03:51:00,
2013-04-19 23:56:00,67.3,64.0,29.47,West,278,9.2,9.2,88,0.00,,,-99.99,wx200d/1.3,2013-04-20 03:56:00,